Simultaneous Nadir Overpasses (SNOs) Predictions

Prediction of SNOs between FY3D and TERRA Satellite Orbit:

Table of predicted SNOs for the next 14.0 days since TLE Epoch: 11/23/2024
Index Date (FY3D) Time (FY3D) Lat,Lon (FY3D) SZA (FY3D ) Date (TERRA) Time (TERRA) Lat,Lon (TERRA) SZA (TERRA ) Distance(km) Time Diff (sec)
1 11/24/2024 00:26:55 -76.65, -6.64 82.80 11/24/2024 00:27:59 -76.62, -6.64 82.83 4.22 64
2 11/24/2024 01:17:39 76.57, 161.00 97.13 11/24/2024 01:17:20 76.57, 160.87 97.13 3.26 19
3 11/26/2024 11:39:26 -76.63,-174.63 82.35 11/26/2024 11:40:10 -76.63,-174.69 82.35 1.72 44
4 11/26/2024 12:30:11 76.59, -7.16 97.63 11/26/2024 12:29:31 76.58, -7.18 97.61 1.37 40
5 11/28/2024 22:51:56 -76.62, 17.33 81.92 11/28/2024 22:52:19 -76.64, 17.26 81.91 2.28 23
6 11/28/2024 23:42:41 76.58,-175.20 98.05 11/28/2024 23:41:40 76.59,-175.23 98.05 1.20 61
7 12/01/2024 09:13:54 77.11, 39.91 98.94 12/01/2024 09:15:00 77.02, 42.84 98.88 73.58 66
8 12/01/2024 10:04:27 -76.63,-150.76 81.53 12/01/2024 10:04:28 -76.65,-150.77 81.51 2.50 1
9 12/01/2024 10:55:03 76.19, 18.23 98.07 12/01/2024 10:53:56 76.26, 15.63 98.10 69.32 67
10 12/03/2024 20:26:15 76.69,-126.41 98.89 12/03/2024 20:27:15 76.70,-126.35 98.89 1.65 60
11 12/03/2024 21:16:58 -76.65, 41.09 81.16 12/03/2024 21:16:36 -76.67, 41.20 81.14 3.48 22
12 12/06/2024 07:38:45 76.68, 65.57 99.18 12/06/2024 07:39:23 76.67, 65.46 99.16 3.27 38



Historial Predications of SNOs between FY3D and TERRA
